Fullerton, CA

7:31 PM PDT on May 26, 2017 (GMT -0700)
Fullerton Municipal

Weather History for KFUL - July, 2013

Change the Weather History Date:

Wednesday, July 3, 2013

  Actual Average Record
Temperature  
Mean Temperature 77 °F 73 °F  
Max Temperature 85 °F 82 °F 93 °F (2003)
Min Temperature 69 °F 63 °F 60 °F (2010)
Degree Days  
Heating Degree Days 0 0  
Month to date heating degree days 0 0  
Since 1 June heating degree days 0 2  
Since 1 July heating degree days 0 0  
Cooling Degree Days 12 8  
Month to date cooling degree days 43 22  
Year to date cooling degree days 673 290  
Since 1 June cooling degree days 318 167  
Growing Degree Days 26 (Base 50)    
Moisture  
Dew Point 62 °F    
Average Humidity 63    
Maximum Humidity 78    
Minimum Humidity 48    
Precipitation  
Precipitation 0.00 in 0.00 in 0.00 in (2017)
Month to date precipitation 0.00 0.00  
Year to date precipitation 2.53 9.65  
Since 1 July precipitation 0.00  
Sea Level Pressure  
Sea Level Pressure 29.86 in    
Wind  
Wind Speed 3 mph (SW)    
Max Wind Speed 8 mph    
Max Gust Speed -    
Visibility 7 miles    
Events      
T = Trace of Precipitation, MM = Missing Value Source: NWS Daily Summary

Daily Weather History Graph

Daily Weather History Graph

Search for Another Location

Airport or City:

Trip Planner

Search our weather history database for the weather conditions in past years. The results will help you decide how hot, cold, wet, or windy it might be!

Date:

Astronomy

Jul. 03, 2013 Rise Set
Actual Time 5:45 AM PDT 8:06 PM PDT
Civil Twilight 5:16 AM PDT 8:35 PM PDT
Nautical Twilight 4:41 AM PDT 9:11 PM PDT
Astronomical Twilight 4:02 AM PDT 9:49 PM PDT
Moon 2:21 AM PDT (7/3) 4:25 PM PDT (7/3)
Length of Visible Light 15h 18m
Length of Day
14h 20m
Waning Crescent, 17% of the Moon is Illuminated
Jul 3
Waning Crescent
Jul 8
New
Jul 15
First Quarter
Jul 22
Full
Jul 29
Last Quarter

Hourly Weather History & Observations

Time (PDT) Temp. Heat Index Dew Point Humidity Pressure Visibility Wind Dir Wind Speed Gust Speed Precip Events Conditions
12:53 AM 72.0 °F - 63.0 °F 73% 29.88 in 10.0 mi WSW 3.5 mph - N/A   Clear
1:53 AM 71.1 °F - 62.1 °F 73% 29.89 in 9.0 mi West 3.5 mph - N/A   Clear
2:53 AM 69.1 °F - 63.0 °F 81% 29.89 in 6.0 mi Calm Calm - N/A   Haze
3:04 AM 69.8 °F - 62.6 °F 78% 29.89 in 6.0 mi Calm Calm - N/A   Haze
3:15 AM 69.8 °F - 62.6 °F 78% 29.89 in 6.0 mi Calm Calm - N/A   Haze
3:53 AM 69.1 °F - 63.0 °F 81% 29.89 in 5.0 mi NW 3.5 mph - N/A   Haze
4:53 AM 69.1 °F - 63.0 °F 81% 29.88 in 5.0 mi Calm Calm - N/A   Haze
5:53 AM 69.1 °F - 63.0 °F 81% 29.88 in 5.0 mi Calm Calm - N/A   Haze
6:53 AM 70.0 °F - 63.0 °F 78% 29.90 in 3.0 mi Calm Calm - N/A   Haze
7:53 AM 71.1 °F - 63.0 °F 75% 29.91 in 4.0 mi Calm Calm - N/A   Haze
8:53 AM 72.0 °F - 63.0 °F 73% 29.93 in 4.0 mi Calm Calm - N/A   Haze
9:34 AM 75.2 °F - 62.6 °F 65% 29.91 in 5.0 mi Variable 3.5 mph - N/A   Haze
9:53 AM 75.9 °F - 63.0 °F 64% 29.91 in 5.0 mi South 3.5 mph - N/A   Haze
10:53 AM 80.1 °F 81.5 °F 63.0 °F 56% 29.89 in 6.0 mi Calm Calm - N/A   Haze
11:53 AM 82.0 °F 83.1 °F 63.0 °F 52% 29.89 in 6.0 mi SSW 5.8 mph - N/A   Haze
12:53 PM 82.0 °F 83.1 °F 63.0 °F 52% 29.86 in 8.0 mi SW 6.9 mph - N/A   Clear
1:53 PM 80.1 °F 81.7 °F 64.0 °F 58% 29.84 in 9.0 mi SSW 6.9 mph - N/A   Clear
2:53 PM 84.0 °F 85.4 °F 64.0 °F 51% 29.83 in 10.0 mi Variable 5.8 mph - N/A   Clear
3:53 PM 84.9 °F 85.9 °F 63.0 °F 48% 29.81 in 10.0 mi SSW 8.1 mph - N/A   Clear
4:53 PM 82.0 °F 82.7 °F 61.0 °F 49% 29.80 in 10.0 mi South 8.1 mph - N/A   Clear
5:53 PM 81.0 °F 81.3 °F 59.0 °F 47% 29.79 in 10.0 mi South 5.8 mph - N/A   Clear
6:53 PM 80.1 °F 81.1 °F 61.0 °F 52% 29.79 in 10.0 mi South 5.8 mph - N/A   Clear
7:53 PM 77.0 °F - 60.1 °F 56% 29.81 in 10.0 mi SSW 3.5 mph - N/A   Clear
8:53 PM 75.0 °F - 62.1 °F 64% 29.82 in 10.0 mi South 3.5 mph - N/A   Clear
9:53 PM 73.0 °F - 61.0 °F 66% 29.82 in 10.0 mi West 3.5 mph - N/A   Clear
10:53 PM 71.1 °F - 60.1 °F 68% 29.83 in 8.0 mi Calm Calm - N/A   Clear
11:53 PM 70.0 °F - 61.0 °F 73% 29.83 in 8.0 mi Calm Calm - N/A   Clear